[[{"header":{"parameterUnit":"m.s-1","parameterCategory":1,"la1":30.2992,"la2":30.254,"lo1":-89.0895,"lo2":-89.0443,"dy":0.0025,"dx":0.0025,"nx":19,"ny":19,"refTime":"2026-03-27T21:00:00:Z","depth":0,"parameterNumber":2,"parameterNumberName":"U-component_of_WINDS"},"data":[0,0,0,2.4358,2.436,2.444,2.444,2.4568,2.4569,0,0,0,0,0,0,0,0,0,0,0,2.435,2.4351,2.4358,2.4361,2.444,2.444,2.4567,2.4569,0,0,0,0,0,0,0,0,0,0,0,2.4349,2.435,2.4352,2.4361,2.444,2.444,2.4567,2.4498,0,0,0,0,0,0,0,0,0,0,2.4417,2.4422,2.435,2.4352,2.4361,2.444,2.444,2.4494,2.4502,2.4543,0,2.4581,0,2.4578,2.4579,2.458,0,0,0,2.4349,2.4416,2.4424,2.4352,2.4362,2.4439,2.4401,2.4498,2.4508,2.4554,2.4583,2.4587,2.458,2.458,2.4581,2.4851,2.4853,0,0,2.4345,2.4371,2.4418,2.4431,2.4419,2.4398,2.4403,2.4504,2.4538,2.4583,2.459,2.4582,2.4581,2.4582,2.485,2.4852,0,0,0,2.434,2.4369,2.4374,2.4426,2.4439,2.4401,2.4407,2.4533,2.4533,2.4591,2.4583,2.4582,2.4584,2.4848,2.4851,2.4966,0,0,0,2.4337,2.4366,2.4373,2.439,2.4437,2.4487,2.4435,2.4526,2.4536,2.4583,2.4582,2.4585,2.4846,2.4849,2.4958,2.5016,0,0,0,2.4339,2.4366,2.4383,2.4391,2.4426,2.4484,2.4489,2.4527,2.4532,2.458,2.4586,2.4844,2.4849,2.4952,2.5005,2.5097,0,0,0,2.4349,2.4481,2.4385,2.453,2.4426,2.4555,2.4488,2.4583,2.4637,2.4583,2.4846,2.485,2.495,2.4998,2.509,2.518,2.522,0,0,2.4531,2.4504,2.4588,2.4504,2.4657,2.4541,2.4712,2.4735,2.4715,2.4808,2.4814,2.4961,2.5004,2.5096,2.5431,2.5463,0,0,0,2.4654,2.4715,2.475,2.4804,2.4827,2.4852,2.4847,2.4857,2.4935,2.4768,2.5017,2.5042,2.5095,2.5137,2.5164,2.5209,2.487,2.487,2.487,2.4948,2.4918,2.5055,2.5036,2.5089,2.5086,2.5127,2.5139,2.509,2.5151,2.5178,2.5385,2.5435,2.5455,2.5502,2.5222,2.5222,2.5223,2.5223,2.5213,2.5295,2.5231,2.5341,2.531,2.5402,2.5406,2.5369,2.5452,2.5361,2.5405,2.5309,2.5491,2.5531,2.5231,2.523,2.5229,2.5228,2.5227,2.5402,2.5436,2.5448,2.5526,2.559,2.5566,2.565,2.5617,2.5586,2.5631,2.5658,2.5656,2.5652,2.5646,2.5647,2.5648,2.5648,2.5649,2.5649,2.5595,2.5604,2.5678,2.5718,2.5751,2.579,2.5792,2.5823,2.585,2.582,2.582,2.5768,2.5514,2.5452,2.566,2.5658,2.5657,2.5656,2.5655,2.5875,2.5807,2.5923,2.5957,2.6003,2.6071,2.6029,2.6098,2.612,2.6164,2.6103,2.592,2.589,2.5869,2.5817,2.6107,2.6107,2.6107,2.6107,2.6036,2.6018,2.6132,2.6188,2.624,2.6216,2.6351,2.6356,2.635,2.6362,2.6316,2.6244,2.6224,2.6206,2.6177,2.6128,2.6491,2.6492,2.6492,2.6207,2.6194,2.6315,2.6309,2.6344,2.6376,2.6504,2.6573,2.6552,2.6507,2.6372,2.6356,2.624,2.6204,2.6155,2.611,2.602,0,0]},{"header":{"parameterUnit":"m.s-1","parameterCategory":1,"la1":30.2992,"la2":30.254,"lo1":-89.0895,"lo2":-89.0443,"dy":0.0025,"dx":0.0025,"nx":19,"ny":19,"refTime":"2026-03-27T21:00:00:Z","depth":0,"parameterNumber":3,"parameterNumberName":"V-component_of_WINDS"},"data":[0,0,0,-0.8242,-0.8237,-0.8009,-0.8008,-0.7712,-0.771,0,0,0,0,0,0,0,0,0,0,0,-0.8307,-0.8305,-0.8242,-0.8236,-0.8009,-0.8008,-0.7713,-0.771,0,0,0,0,0,0,0,0,0,0,0,-0.8308,-0.8306,-0.8303,-0.8236,-0.8009,-0.8008,-0.7714,-0.7887,0,0,0,0,0,0,0,0,0,0,-0.8108,-0.8167,-0.8306,-0.8303,-0.8234,-0.8009,-0.8008,-0.7895,-0.7876,-0.7814,0,-0.776,0,-0.773,-0.769,-0.7689,0,0,0,-0.8237,-0.8183,-0.8124,-0.8303,-0.8232,-0.801,-0.8112,-0.7884,-0.7863,-0.7789,-0.7756,-0.7745,-0.7726,-0.7688,-0.7686,-0.7336,-0.7334,0,0,-0.825,-0.8264,-0.8139,-0.811,-0.8146,-0.8119,-0.8105,-0.7871,-0.7835,-0.7755,-0.7738,-0.7721,-0.7686,-0.7684,-0.7337,-0.7335,0,0,0,-0.8285,-0.8273,-0.822,-0.8122,-0.8081,-0.8112,-0.8096,-0.7845,-0.7827,-0.7735,-0.7717,-0.7684,-0.7681,-0.7339,-0.7336,-0.727,0,0,0,-0.8293,-0.8294,-0.8225,-0.8232,-0.8086,-0.796,-0.8075,-0.7843,-0.7817,-0.7719,-0.7684,-0.7678,-0.7341,-0.7338,-0.7276,-0.7235,0,0,0,-0.8323,-0.8297,-0.8264,-0.8233,-0.8136,-0.7964,-0.7932,-0.7837,-0.7806,-0.7689,-0.7677,-0.7342,-0.7338,-0.7281,-0.7243,-0.7149,0,0,0,-0.8358,-0.8204,-0.8263,-0.8086,-0.8138,-0.7926,-0.7934,-0.7773,-0.7665,-0.7683,-0.7341,-0.7337,-0.7282,-0.7248,-0.7154,-0.7072,-0.7039,0,0,-0.8172,-0.8182,-0.8077,-0.8123,-0.7905,-0.7959,-0.773,-0.7615,-0.7589,-0.7422,-0.7413,-0.7274,-0.7244,-0.715,-0.685,-0.6825,0,0,0,-0.8023,-0.7948,-0.7887,-0.7787,-0.7698,-0.762,-0.7539,-0.7498,-0.7356,-0.7506,-0.7214,-0.7195,-0.714,-0.71,-0.7077,-0.7029,-0.7319,-0.7319,-0.732,-0.7778,-0.7759,-0.7584,-0.7538,-0.7441,-0.7363,-0.7283,-0.7214,-0.7216,-0.7149,-0.7098,-0.6919,-0.6873,-0.6856,-0.6806,-0.7053,-0.7053,-0.7053,-0.7053,-0.7505,-0.7396,-0.7412,-0.7248,-0.7229,-0.709,-0.7012,-0.702,-0.6889,-0.6954,-0.6904,-0.6977,-0.6828,-0.6784,-0.7047,-0.7048,-0.7049,-0.705,-0.705,-0.7342,-0.7287,-0.7243,-0.71,-0.6993,-0.6951,-0.6827,-0.6812,-0.6797,-0.6748,-0.6694,-0.6695,-0.6695,-0.6724,-0.6723,-0.6723,-0.6722,-0.6722,-0.6721,-0.719,-0.7143,-0.704,-0.694,-0.6877,-0.6792,-0.6718,-0.6654,-0.6581,-0.658,-0.6579,-0.6591,-0.6819,-0.6876,-0.6711,-0.6713,-0.6714,-0.6715,-0.6716,-0.6919,-0.698,-0.6821,-0.6759,-0.6642,-0.6539,-0.6525,-0.6399,-0.6345,-0.6285,-0.631,-0.6481,-0.6488,-0.6506,-0.6553,-0.6315,-0.6315,-0.6315,-0.6314,-0.6781,-0.6786,-0.6624,-0.6526,-0.6428,-0.6402,-0.6226,-0.6169,-0.6118,-0.6084,-0.6117,-0.6179,-0.6198,-0.6195,-0.6219,-0.6263,-0.5956,-0.5955,-0.5955,-0.6613,-0.661,-0.6461,-0.6417,-0.6327,-0.625,-0.6084,-0.5971,-0.5927,-0.594,-0.6058,-0.6073,-0.6173,-0.6206,-0.6218,-0.6256,-0.6336,0,0]}]]